[[{"header":{"parameterUnit":"m.s-1","parameterCategory":1,"la1":30.2991,"la2":30.254,"lo1":-89.0895,"lo2":-89.0444,"dy":0.0017,"dx":0.0017,"nx":28,"ny":28,"refTime":"2024-07-18T21:00:00:Z","depth":0,"parameterNumber":2,"parameterNumberName":"U-component_of_WINDS"},"data":[0,0,0,0,0,0,0,0,0,0,0,0,0,0,0,0,0,0,0,0,0,0,0,0,0,0,0,0,0,0,0,0,0,0,0,0,0,0,0,0,0,0,0,0,0,0,0,0,0,0,0,0,0,0,0,0,0,0,1.7536,1.7537,0,1.7623,1.7624,1.7625,1.7594,1.7592,1.759,1.7588,1.7675,1.7679,1.7683,0,0,0,0,0,0,0,0,0,0,0,0,0,1.7339,1.7343,1.7536,1.7537,1.7538,1.7623,1.7624,1.7625,1.7594,1.7592,1.7589,1.7587,1.7674,1.7678,1.7683,0,0,0,0,0,0,0,0,0,0,0,0,0,1.7425,1.7344,1.7535,1.7533,1.7533,1.7623,1.7624,1.7625,1.7595,1.7592,1.7589,1.7586,1.7672,1.7678,1.7684,1.778,0,0,1.7703,1.7706,0,0,0,0,0,0,0,0,1.742,1.7432,1.7532,1.7533,1.7534,1.7595,1.7587,1.7677,1.7595,1.7571,1.7588,1.7585,1.765,1.7658,1.7681,1.7785,1.7788,1.7703,1.7707,1.771,1.7712,0,0,0,0,0,0,0,1.7414,1.7429,1.757,1.7533,1.7535,1.7526,1.7535,1.7604,1.7626,1.7573,1.7571,1.7582,1.765,1.7675,1.7683,1.7789,1.7703,1.7709,1.7713,1.7715,1.7975,1.7978,0,0,0,0,0,0,1.7408,1.7424,1.7567,1.7573,1.7469,1.7532,1.7542,1.7578,1.7625,1.763,1.7584,1.758,1.7666,1.7675,1.7686,1.7799,1.771,1.7716,1.7719,1.7972,1.7976,1.7979,0,0,0,0,0,0,1.7404,1.7422,1.7564,1.7498,1.7515,1.7539,1.7579,1.7581,1.7606,1.7634,1.7637,1.7606,1.7664,1.7677,1.7757,1.7802,1.7718,1.7724,1.7968,1.7973,1.7977,1.8029,0,0,0,0,0,0,1.7399,1.742,1.7458,1.7499,1.7519,1.7634,1.7582,1.7585,1.7617,1.7612,1.7655,1.7659,1.7663,1.7748,1.7763,1.7809,1.7729,1.7964,1.797,1.7976,1.8024,1.8035,1.8045,0,0,0,0,0,1.7392,1.7469,1.746,1.7477,1.7566,1.7637,1.7648,1.7652,1.7621,1.7658,1.7676,1.7657,1.7796,1.7756,1.7773,1.7822,1.7961,1.7968,1.7975,1.8019,1.8033,1.8045,0,0,0,0,0,0,1.7431,1.7474,1.7464,1.7557,1.7594,1.7632,1.7678,1.7667,1.7713,1.7707,1.7709,1.7718,1.78,1.782,1.7775,1.7917,1.7873,1.7884,1.7901,1.7915,1.7925,1.7917,1.7734,0,0,0,0,0,1.7451,1.7506,1.754,1.7618,1.7637,1.7655,1.7686,1.7686,1.7724,1.7739,1.7762,1.7799,1.785,1.7884,1.7933,1.8028,1.8035,1.8069,1.808,1.8089,1.8097,1.8147,1.8162,1.8003,1.8003,1.8003,0,0,1.7491,1.7522,1.7556,1.7627,1.7655,1.771,1.7668,1.7729,1.7769,1.7748,1.7824,1.7843,1.7884,1.7971,1.8011,1.799,1.8144,1.8098,1.8105,1.8109,1.8156,1.8171,1.8184,1.8008,1.8007,1.8006,0,0,1.7593,1.7622,1.769,1.7719,1.7763,1.7775,1.7791,1.7831,1.7843,1.792,1.7905,1.7953,1.8042,1.8072,1.8098,1.8212,1.8196,1.8228,1.8283,1.8332,1.8344,1.8355,1.8393,1.8407,1.8237,1.8237,1.8237,0,1.7637,1.772,1.7726,1.7787,1.7818,1.7803,1.787,1.7898,1.7956,1.7977,1.7953,1.8064,1.8091,1.8184,1.8211,1.8235,1.8252,1.8221,1.8342,1.8353,1.8364,1.84,1.8414,1.8241,1.824,1.824,1.8239,0,1.7771,1.783,1.7879,1.7935,1.7972,1.8037,1.805,1.8087,1.8084,1.8098,1.8176,1.8208,1.8262,1.8285,1.8283,1.8378,1.8363,1.8341,1.8297,1.8382,1.8416,1.843,1.8245,1.8244,1.8243,1.8242,0,0,1.7897,1.7956,1.7974,1.7998,1.8047,1.8091,1.8155,1.8209,1.8239,1.828,1.8332,1.8409,1.8388,1.8419,1.842,1.8463,1.8548,1.8435,1.8436,1.8452,1.8651,1.8665,1.8681,1.8539,1.8542,1.8544,1.8647,0,1.7999,1.8111,1.8118,1.8219,1.8272,1.8258,1.8314,1.8348,1.8364,1.841,1.8427,1.8479,1.845,1.8468,1.851,1.8528,1.8587,1.8522,1.8585,1.8587,1.8572,1.8699,1.8714,1.881,1.866,1.8663,1.8664,0,1.8134,1.8179,1.8285,1.8325,1.8347,1.8397,1.8446,1.8492,1.8531,1.8539,1.8573,1.8569,1.8632,1.8589,1.8676,1.8631,1.8658,1.8672,1.8675,1.8678,1.8628,1.8703,1.884,1.8853,1.8686,1.8684,1.8683,0,1.821,1.8298,1.8373,1.8395,1.8444,1.8479,1.8501,1.8537,1.8569,1.8613,1.8633,1.8684,1.8711,1.875,1.8759,1.8727,1.8845,1.8803,1.8852,1.8852,1.8874,1.8872,1.9015,1.8898,1.8897,1.8897,1.8897,0,1.8322,1.8387,1.8408,1.8453,1.8525,1.8532,1.8603,1.8623,1.8656,1.8704,1.8697,1.8742,1.8752,1.8799,1.8807,1.8877,1.889,1.8897,1.8897,1.8896,1.8894,1.891,1.8903,1.8901,1.89,1.8899,1.8899,0,1.8418,1.8436,1.8515,1.8556,1.8567,1.8618,1.8652,1.8695,1.8711,1.8772,1.8786,1.8809,1.8865,1.8878,1.8944,1.895,1.9031,1.9027,1.9018,1.9016,1.9063,1.9057,1.9218,1.9239,1.9111,1.9113,1.9114,0,1.8487,1.8536,1.8582,1.8614,1.8638,1.869,1.8723,1.8733,1.8767,1.8816,1.8853,1.8907,1.8951,1.904,1.9062,1.9112,1.9107,1.916,1.9114,1.911,1.9104,1.91,1.9104,1.9168,1.9169,1.917,1.9171,0,1.8605,1.8611,1.8659,1.871,1.875,1.879,1.8829,1.8855,1.8871,1.891,1.8966,1.9,1.9068,1.9121,1.9172,1.9194,1.9184,1.9186,1.9199,1.9196,1.9187,1.919,1.9038,1.9181,1.918,1.9179,1.9179,1.9178,1.8687,1.873,1.8769,1.8822,1.8853,1.8889,1.8931,1.8952,1.9,1.9056,1.9059,1.912,1.9158,1.9226,1.9251,1.9298,1.9281,1.9302,1.9306,1.931,1.9313,1.9183,1.9308,1.9307,1.9307,1.9307,1.9307,0,1.8802,1.8827,1.8877,1.8931,1.8973,1.8963,1.9005,1.904,1.9094,1.9131,1.9175,1.924,1.9292,1.9319,1.9371,1.9403,1.94,1.9416,1.9412,1.9417,1.9326,1.9307,1.9418,1.9418,1.9418,1.9418,1.9418,1.9418,1.8867,1.8938,1.8949,1.9035,1.9059,1.9119,1.9144,1.9177,1.9207,1.9279,1.9323,1.9341,1.9374,1.9428,1.9475,1.9482,1.9499,1.9517,1.9521,1.9435,1.9423,1.9412,1.9395,1.9522,1.9522,1.9608,1.9609,1.9609]},{"header":{"parameterUnit":"m.s-1","parameterCategory":1,"la1":30.2991,"la2":30.254,"lo1":-89.0895,"lo2":-89.0444,"dy":0.0017,"dx":0.0017,"nx":28,"ny":28,"refTime":"2024-07-18T21:00:00:Z","depth":0,"parameterNumber":3,"parameterNumberName":"V-component_of_WINDS"},"data":[0,0,0,0,0,0,0,0,0,0,0,0,0,0,0,0,0,0,0,0,0,0,0,0,0,0,0,0,0,0,0,0,0,0,0,0,0,0,0,0,0,0,0,0,0,0,0,0,0,0,0,0,0,0,0,0,0,0,2.733,2.7331,0,2.7361,2.7362,2.7362,2.7275,2.7273,2.727,2.7267,2.7298,2.7301,2.7304,0,0,0,0,0,0,0,0,0,0,0,0,0,2.7193,2.7196,2.733,2.7331,2.7331,2.7361,2.7362,2.7362,2.7276,2.7273,2.7269,2.7266,2.7297,2.7301,2.7305,0,0,0,0,0,0,0,0,0,0,0,0,0,2.7242,2.7197,2.733,2.7292,2.7288,2.7361,2.7362,2.7362,2.7277,2.7272,2.7268,2.7265,2.7296,2.73,2.7305,2.7416,0,0,2.732,2.7323,0,0,0,0,0,0,0,0,2.7239,2.7247,2.7297,2.7294,2.7291,2.731,2.7325,2.738,2.7278,2.7281,2.7267,2.7263,2.7305,2.7309,2.7324,2.7418,2.7419,2.7321,2.7324,2.7326,2.7327,0,0,0,0,0,0,0,2.7236,2.7245,2.7342,2.7298,2.7294,2.7272,2.7274,2.7335,2.7315,2.728,2.7274,2.7279,2.7303,2.7319,2.7324,2.742,2.7321,2.7325,2.7328,2.733,2.7606,2.761,0,0,0,0,0,0,2.7238,2.7243,2.7341,2.7343,2.7255,2.7278,2.728,2.7308,2.7314,2.7311,2.7283,2.7275,2.7313,2.7318,2.7325,2.7455,2.7326,2.7331,2.7333,2.7601,2.7607,2.7611,0,0,0,0,0,0,2.7235,2.7247,2.734,2.7291,2.7301,2.7284,2.7316,2.7311,2.7327,2.7316,2.7312,2.7303,2.731,2.7318,2.7394,2.7455,2.7333,2.7337,2.7596,2.7603,2.7609,2.7717,0,0,0,0,0,0,2.7231,2.7247,2.729,2.7293,2.7304,2.741,2.732,2.7314,2.7336,2.7327,2.7334,2.7332,2.7307,2.7387,2.7399,2.7459,2.7341,2.7591,2.7599,2.7607,2.7708,2.7726,2.7742,0,0,0,0,0,2.7227,2.7318,2.7292,2.7305,2.7358,2.7414,2.742,2.7391,2.7342,2.7384,2.7376,2.7331,2.7446,2.7396,2.7408,2.7471,2.7587,2.7597,2.7606,2.77,2.7723,2.7742,0,0,0,0,0,0,2.7322,2.7318,2.7289,2.7385,2.74,2.7399,2.7452,2.7416,2.7446,2.7435,2.7397,2.7399,2.7483,2.7484,2.7428,2.7579,2.7508,2.7521,2.7575,2.7596,2.7613,2.7611,2.7345,0,0,0,0,0,2.7354,2.7401,2.7395,2.748,2.7489,2.747,2.7493,2.7469,2.7483,2.749,2.7488,2.7503,2.7542,2.7569,2.7605,2.7707,2.7708,2.7757,2.7774,2.7788,2.78,2.7854,2.7875,2.7643,2.7643,2.7643,0,0,2.7421,2.7425,2.7457,2.7499,2.7508,2.7557,2.7476,2.7531,2.7566,2.7498,2.757,2.7569,2.7584,2.7674,2.7713,2.7678,2.7864,2.78,2.7812,2.7816,2.7866,2.7888,2.7908,2.765,2.7649,2.7648,0,0,2.7568,2.7576,2.7647,2.7658,2.7674,2.766,2.7677,2.7682,2.7679,2.7751,2.77,2.7741,2.781,2.7823,2.7838,2.7989,2.7949,2.8002,2.8091,2.8145,2.8163,2.8179,2.8233,2.8253,2.8013,2.8013,2.8014,0,2.7649,2.7722,2.7688,2.7747,2.7767,2.7707,2.7779,2.7791,2.7817,2.7832,2.7792,2.7877,2.7882,2.7974,2.8011,2.8025,2.8044,2.8001,2.8163,2.8179,2.8193,2.8244,2.8265,2.802,2.8019,2.8018,2.8018,0,2.782,2.7871,2.7927,2.7954,2.798,2.8045,2.8021,2.8051,2.8025,2.8015,2.8089,2.8093,2.8129,2.8149,2.8123,2.8237,2.8215,2.8169,2.8097,2.8222,2.827,2.8289,2.8029,2.8027,2.8025,2.8023,0,0,2.8029,2.8037,2.8058,2.807,2.8082,2.812,2.8182,2.8217,2.8244,2.8263,2.8314,2.8373,2.8331,2.8349,2.8324,2.8371,2.849,2.8319,2.8319,2.8351,2.8616,2.8651,2.8674,2.8463,2.8467,2.847,2.8615,0,2.8174,2.8281,2.8253,2.8359,2.8405,2.8349,2.8402,2.8416,2.8408,2.8445,2.8436,2.8479,2.842,2.8431,2.8474,2.8467,2.8543,2.8455,2.851,2.8512,2.8509,2.8699,2.8736,2.8873,2.8633,2.8636,2.8639,0,2.8358,2.8386,2.8497,2.8501,2.8519,2.8568,2.8598,2.8635,2.8648,2.8639,2.8659,2.8624,2.8684,2.8612,2.8694,2.8635,2.8655,2.8655,2.866,2.8664,2.8584,2.8709,2.8916,2.8937,2.8667,2.8665,2.8663,0,2.85,2.8564,2.8639,2.865,2.8657,2.8693,2.8697,2.8707,2.873,2.8755,2.8769,2.8802,2.882,2.8845,2.882,2.8769,2.8906,2.8831,2.89,2.8901,2.8932,2.8931,2.9146,2.8945,2.8944,2.8944,2.8944,0,2.8665,2.8735,2.8703,2.8749,2.8826,2.8792,2.8868,2.8866,2.8875,2.8919,2.8872,2.8914,2.8878,2.8917,2.8898,2.8969,2.8977,2.8971,2.8966,2.8976,2.8977,2.8989,2.8979,2.8949,2.8948,2.8947,2.8946,0,2.8837,2.8817,2.8895,2.8895,2.8897,2.8954,2.8953,2.8995,2.8984,2.904,2.9052,2.9034,2.9077,2.9055,2.9099,2.9086,2.9179,2.916,2.9175,2.917,2.924,2.9234,2.9472,2.9501,2.928,2.9282,2.9284,0,2.8944,2.8997,2.9002,2.9029,2.9037,2.908,2.9103,2.9071,2.9097,2.9116,2.9156,2.9195,2.9225,2.9297,2.9288,2.9322,2.9303,2.9384,2.9308,2.9317,2.9305,2.9303,2.9308,2.94,2.9402,2.9404,2.9406,0,2.9136,2.9124,2.9159,2.9192,2.9221,2.9245,2.9264,2.9288,2.9257,2.9288,2.9332,2.9356,2.9401,2.9441,2.947,2.9474,2.9435,2.943,2.9448,2.9459,2.9466,2.9464,2.9217,2.9425,2.9423,2.9422,2.9421,2.942,2.9279,2.9323,2.9334,2.9375,2.9386,2.9406,2.9446,2.9439,2.9476,2.9511,2.9489,2.9541,2.9552,2.9588,2.9596,2.9636,2.9604,2.963,2.9636,2.9643,2.9653,2.946,2.9641,2.9641,2.964,2.964,2.9639,0,2.9469,2.9473,2.9511,2.954,2.9573,2.9533,2.9553,2.9582,2.9628,2.9642,2.9673,2.9723,2.9761,2.9755,2.9789,2.9822,2.9806,2.9833,2.983,2.9832,2.968,2.9661,2.9846,2.9846,2.9846,2.9846,2.9846,2.9846,2.9572,2.9645,2.9634,2.9712,2.9715,2.9766,2.978,2.9798,2.9809,2.9867,2.9899,2.9895,2.99,2.9935,2.9968,2.9965,2.998,3.0014,3.0005,2.9863,2.9842,2.9823,2.9805,3.0017,3.0018,3.0153,3.0155,3.0156]}]]